Starlink 30271

operational
NORAD ID: 57669 Int'l Des: 2023-124 Owner: SPXS Country: US Constellation: starlink
LEOCIRCULAR

Starlink 30271について

説明を読み込み中...

リアルタイム位置

3D地球を読み込み中...

次回通過

高度履歴

Altitude vs Time

uPlot chart will show altitude changes over time

軌道要素

1 57669U 23124G 25354.87787071 .00000635 00000-0 33587-4 0 9993
2 57669 53.1585 213.1245 0001149 84.4743 275.6389 15.30189265131493
Epoch: Dec 20, 2025 • Age: 9 hours

現在のステータス

高度 493.0 km
速度 7.62 km/s
衛星直下点 -49.43°S, 31.66°W
打ち上げ日 Aug 22, 2023
運用期間 2.3 years
タイプ internet

技術仕様

分類 Payload
質量 730.00 kg
乾燥質量 700.00 kg
総質量 730.00 kg
長さ 0.30 m
直径 4.10 m
スパン 29.00 m
形状 Box + pan
製造者 SPXS
バスタイプ Starlink V2M
フェーズステータス In Orbit
所有者/国 SPXS/US

大規模コンステレーション

Loading constellations...